Powrót do katalogu

GUANGCHUAN 02

AktywnyŁącznośćVLEO
NORAD 62112·PAYLOAD·🇨🇳 China

Wystrzelony Nov 27, 2024 z Jiuquan Satellite Launch Center

Loading…

Następne Przeloty (najbliższe 24 godziny)

TLE

ŚwieżeSource: Space-Track

Epoka: Sep 14, 2026, 22:51 UTC

1 62112U 24221B   26257.95237173  .00002184  00000-0  13381-3 0  9996
2 62112  49.9417  84.9457 0005945 348.6719  11.4097 15.14334631 99782

Śledź GUANGCHUAN 02 w czasie rzeczywistym z AllMySat

Download on the App Store